Location: ??
(34.9170°N, 135.5016°E)
Time: 01:44:18
(UTC+00:00)

CZ-2C R/B - Pass Details

Date: 29 October 2020
Orbit: 667 x 785 km, 98.2° (Epoch: 25 November)

Event Time Altitude Azimuth Distance (km) Brightness Sun altitude
Rises 19:48:55 0° 357° (N) 3,175 5.6 -18.6°
Reaches altitude 10° 19:51:37 10° 343° (NNW) 2,227 4.7 -18.0°
Enters shadow 19:53:33 19° 323° (NW) 1,703 3.9 -17.6°
